< < Back
Terminal Aerodrome Forecast


Current Version              Previous Versions:   1  2  3  4  5  6  7  8  9  

Terminal Aerodrome Forecast

451
FTUS44 KMRX 021215 AAA
TAFTYS
TAF AMD
KTYS 021215Z 0212/0312 35006KT P6SM SCT007 OVC015
      TEMPO 0212/0214 5SM -RA BR OVC007
     FM021400 02008KT P6SM OVC015
     FM021800 02008KT P6SM BKN035
     FM030100 03004KT P6SM BKN080
     FM030900 VRB03KT 4SM -RA BR BKN015 OVC035=



Latest METAR

395
SAUS80 KWBC 021200 CCA
MTRTYS
METAR KTYS 021153Z 36008KT 10SM FEW004 BKN009 OVC013 06/05 A3036 RMK AO2
RAE13 CIG 007V012 SLP282 P0000 60016 70019 T00610050 10078
20061 53026 $


USA.gov is the U.S. government's official web portal to all federal, state and local government web resources and services.